This is the latest recevied weather packets stored in our database for station/object HP1MRA-15. If no packets are shown the sender has not sent any weather packets the latest 10 day(s).
| Time | Temp. | Humidity | Pressure | Rain* | Wind** | Luminosity | Snow |
|---|---|---|---|---|---|---|---|
| 1777648298 | 35° C | 58% | 1001.6 hPa | 0 mm | - | - | - |
| 1777647997 | 35° C | 59% | 1001.6 hPa | 0 mm | - | - | - |
| 1777647697 | 34.44° C | 58% | 1001.6 hPa | 0 mm | - | - | - |
| 1777647398 | 34.44° C | 63% | 1001.7 hPa | 0 mm | - | - | - |
| 1777647097 | 33.89° C | 62% | 1001.6 hPa | 0 mm | - | - | - |
| 1777646797 | 33.33° C | 65% | 1001.7 hPa | 0 mm | - | - | - |
| 1777646498 | 32.22° C | 67% | 1001.8 hPa | 0 mm | - | - | - |
| 1777646197 | 31.67° C | 68% | 1001.9 hPa | 0 mm | - | - | - |
| 1777645897 | 31.67° C | 68% | 1002 hPa | 0 mm | - | - | - |
| 1777645597 | 32.22° C | 67% | 1001.8 hPa | 0 mm | - | - | - |
| 1777645297 | 32.22° C | 66% | 1001.9 hPa | 0 mm | - | - | - |
| 1777644997 | 32.78° C | 66% | 1001.8 hPa | 0 mm | - | - | - |
| 1777644697 | 33.33° C | 65% | 1001.6 hPa | 0 mm | - | - | - |
| 1777644396 | 33.33° C | 66% | 1001.4 hPa | 0 mm | - | - | - |
| 1777644095 | 33.33° C | 68% | 1001.4 hPa | 0 mm | - | - | - |
| 1777643796 | 33.33° C | 68% | 1001.3 hPa | 0 mm | - | - | - |
| 1777643494 | 32.78° C | 69% | 1001.1 hPa | 0 mm | - | - | - |
| 1777643196 | 32.78° C | 70% | 1001.1 hPa | 0 mm | - | - | - |
| 1777642612 | 32.22° C | 70% | 1001.1 hPa | 0 mm | - | - | - |
| 1777642312 | 31.67° C | 71% | 1001 hPa | 0 mm | - | - | - |
| 1777642011 | 31.67° C | 72% | 1001 hPa | 0 mm | - | - | - |
| 1777641711 | 31.11° C | 72% | 1001.1 hPa | 0 mm | - | - | - |
| 1777641411 | 31.11° C | 76% | 1001 hPa | 0 mm | - | - | - |
| 1777641110 | 30.56° C | 76% | 1001 hPa | 0 mm | - | - | - |
| 1777640807 | 30.56° C | 77% | 1001 hPa | 0 mm | - | - | - |
* Rain latest hour (hover to see other rain measurements)
** Current wind speed in m/s (hover to see current wind gust speed)